ACA31D CYYZ-KIAH

Flight info

Callsign ACA31D
Flight time 3h 20m
Altitude 32000
Route MIXUT7 GNTRY DCT RINTE DCT TIIDE/N0468F340 Q31 DHART Q33 SWEUP DOOBI3
Aircraft A321/M-SDE3FGHIRWY/LB1

Departure

Time 2026-05-06 17:52
Airport Toronto Pearson International Airport (CYYZ)

Arrival

Time 2026-05-06 21:12
Airport George Bush Intercontinental Airport (KIAH)
Time Latitude Longitude Altitude Speed Heading
2026-05-06 17:16 43.68024 -79.61709 572 ft 0 kts 136°
2026-05-06 17:38 43.68030 -79.61716 570 ft 4 kts 139°
2026-05-06 17:38 43.68052 -79.61738 564 ft 4 kts 152°
2026-05-06 17:38 43.68076 -79.61752 570 ft 4 kts 172°
2026-05-06 17:39 43.68103 -79.61750 567 ft 4 kts 199°
2026-05-06 17:39 43.68124 -79.61735 569 ft 2 kts 221°
2026-05-06 17:39 43.68125 -79.61734 569 ft 0 kts 221°
2026-05-06 17:41 43.68117 -79.61743 566 ft 6 kts 221°
2026-05-06 17:41 43.68064 -79.61819 565 ft 12 kts 226°
2026-05-06 17:41 43.68012 -79.61894 571 ft 10 kts 227°
2026-05-06 17:42 43.67963 -79.61926 566 ft 7 kts 174°
2026-05-06 17:42 43.67917 -79.61899 567 ft 10 kts 154°
2026-05-06 17:42 43.67834 -79.61823 564 ft 16 kts 134°
2026-05-06 17:42 43.67758 -79.61722 561 ft 14 kts 137°
2026-05-06 17:43 43.67695 -79.61636 568 ft 12 kts 133°
2026-05-06 17:43 43.67643 -79.61561 569 ft 10 kts 135°
2026-05-06 17:43 43.67583 -79.61480 563 ft 14 kts 136°
2026-05-06 17:43 43.67525 -79.61388 561 ft 12 kts 123°
2026-05-06 17:44 43.67490 -79.61299 566 ft 9 kts 130°
2026-05-06 17:44 43.67431 -79.61288 567 ft 11 kts 202°
2026-05-06 17:44 43.67359 -79.61320 566 ft 10 kts 183°
2026-05-06 17:44 43.67300 -79.61290 561 ft 8 kts 142°
2026-05-06 17:45 43.67261 -79.61240 564 ft 7 kts 136°
2026-05-06 17:45 43.67213 -79.61176 562 ft 13 kts 136°
2026-05-06 17:45 43.67143 -79.61166 564 ft 9 kts 216°
2026-05-06 17:45 43.67106 -79.61215 564 ft 7 kts 225°
2026-05-06 17:46 43.67067 -79.61271 569 ft 9 kts 227°
2026-05-06 17:46 43.67025 -79.61333 568 ft 8 kts 227°
2026-05-06 17:46 43.66994 -79.61377 567 ft 7 kts 225°
2026-05-06 17:46 43.66923 -79.61480 573 ft 21 kts 227°
2026-05-06 17:47 43.66848 -79.61648 567 ft 19 kts 267°
2026-05-06 17:47 43.66831 -79.61796 572 ft 15 kts 231°
2026-05-06 17:47 43.66761 -79.61891 568 ft 13 kts 221°
2026-05-06 17:47 43.66698 -79.61970 575 ft 12 kts 222°
2026-05-06 17:48 43.66641 -79.62040 568 ft 10 kts 222°
2026-05-06 17:48 43.66590 -79.62104 571 ft 10 kts 222°
2026-05-06 17:48 43.66543 -79.62162 563 ft 9 kts 222°
2026-05-06 17:48 43.66501 -79.62216 571 ft 9 kts 223°
2026-05-06 17:49 43.66457 -79.62274 568 ft 8 kts 223°
2026-05-06 17:49 43.66394 -79.62353 564 ft 17 kts 223°
2026-05-06 17:49 43.66305 -79.62441 563 ft 12 kts 186°
2026-05-06 17:49 43.66246 -79.62389 561 ft 9 kts 136°
2026-05-06 17:50 43.66210 -79.62342 564 ft 7 kts 136°
2026-05-06 17:50 43.66173 -79.62272 572 ft 10 kts 99°
2026-05-06 17:50 43.66200 -79.62199 566 ft 8 kts 48°
2026-05-06 17:50 43.66215 -79.62178 570 ft 0 kts 45°
2026-05-06 17:51 43.66218 -79.62174 570 ft 4 kts 45°
2026-05-06 17:51 43.66343 -79.61995 574 ft 59 kts 46°
2026-05-06 17:51 43.66780 -79.61360 563 ft 120 kts 46°
2026-05-06 17:51 43.67476 -79.60359 587 ft 165 kts 39°
2026-05-06 17:52 43.68244 -79.59193 1232 ft 163 kts 48°
2026-05-06 17:52 43.68656 -79.57696 1786 ft 177 kts 89°
2026-05-06 17:52 43.68494 -79.56013 2412 ft 179 kts 100°
2026-05-06 17:52 43.68225 -79.54274 2614 ft 194 kts 101°
2026-05-06 17:53 43.67922 -79.52376 2749 ft 211 kts 101°
2026-05-06 17:53 43.67605 -79.50307 2892 ft 229 kts 101°
2026-05-06 17:53 43.67274 -79.48033 3032 ft 254 kts 100°
2026-05-06 17:53 43.66932 -79.45580 3550 ft 264 kts 100°
2026-05-06 17:54 43.66586 -79.43065 4228 ft 269 kts 103°
2026-05-06 17:54 43.65795 -79.40741 4833 ft 271 kts 136°
2026-05-06 17:54 43.64217 -79.39424 5431 ft 267 kts 172°
2026-05-06 17:54 43.62413 -79.39586 6077 ft 261 kts 205°
2026-05-06 17:55 43.60786 -79.40685 6758 ft 261 kts 211°
2026-05-06 17:55 43.59184 -79.41866 7461 ft 261 kts 211°
2026-05-06 17:55 43.57588 -79.43054 8188 ft 261 kts 212°
2026-05-06 17:55 43.55990 -79.44236 8900 ft 261 kts 212°
2026-05-06 17:56 43.54468 -79.45578 9589 ft 259 kts 221°
2026-05-06 17:56 43.53054 -79.47119 10182 ft 261 kts 221°
2026-05-06 17:56 43.51577 -79.48713 10347 ft 280 kts 220°
2026-05-06 17:56 43.50016 -79.50406 10472 ft 298 kts 223°
2026-05-06 17:57 43.48514 -79.52481 10594 ft 315 kts 231°
2026-05-06 17:57 43.47071 -79.54845 10717 ft 331 kts 231°
2026-05-06 17:57 43.45548 -79.57331 10891 ft 346 kts 231°
2026-05-06 17:57 43.43983 -79.59882 11346 ft 351 kts 231°
2026-05-06 17:58 43.42405 -79.62455 11907 ft 353 kts 231°
2026-05-06 17:58 43.40820 -79.65038 12485 ft 354 kts 231°
2026-05-06 17:58 43.39227 -79.67632 13014 ft 356 kts 231°
2026-05-06 17:58 43.37622 -79.70237 13527 ft 357 kts 230°
2026-05-06 17:59 43.36013 -79.72845 13986 ft 358 kts 231°
2026-05-06 17:59 43.34398 -79.75461 14431 ft 360 kts 231°
2026-05-06 17:59 43.32774 -79.78090 14869 ft 362 kts 231°
2026-05-06 17:59 43.31141 -79.80732 15310 ft 364 kts 231°
2026-05-06 18:00 43.29494 -79.83390 15715 ft 367 kts 231°
2026-05-06 18:00 43.27834 -79.86065 16143 ft 369 kts 231°
2026-05-06 18:00 43.26182 -79.88760 16565 ft 370 kts 234°
2026-05-06 18:00 43.24810 -79.91750 16979 ft 371 kts 244°
2026-05-06 18:01 43.23890 -79.95009 17376 ft 374 kts 253°
2026-05-06 18:01 43.23340 -79.98502 17798 ft 376 kts 257°
2026-05-06 18:01 43.22830 -80.02030 18212 ft 378 kts 257°
2026-05-06 18:01 43.22318 -80.05566 18576 ft 379 kts 257°
2026-05-06 18:02 43.21801 -80.09122 18964 ft 381 kts 257°
2026-05-06 18:02 43.21280 -80.12685 19339 ft 382 kts 257°
2026-05-06 18:02 43.20751 -80.16261 19692 ft 383 kts 257°
2026-05-06 18:02 43.20220 -80.19841 20049 ft 385 kts 257°
2026-05-06 18:03 43.19671 -80.23443 20382 ft 387 kts 255°
2026-05-06 18:03 43.18795 -80.26931 20734 ft 388 kts 246°
2026-05-06 18:03 43.17605 -80.30249 21070 ft 389 kts 244°
2026-05-06 18:03 43.16396 -80.33578 21431 ft 391 kts 244°
2026-05-06 18:04 43.15185 -80.36919 21784 ft 392 kts 244°
2026-05-06 18:04 43.13970 -80.40268 22126 ft 394 kts 244°
2026-05-06 18:04 43.12749 -80.43632 22473 ft 395 kts 244°
2026-05-06 18:04 43.11525 -80.46998 22798 ft 396 kts 244°
2026-05-06 18:05 43.10296 -80.50377 23122 ft 398 kts 244°
2026-05-06 18:05 43.09058 -80.53778 23463 ft 399 kts 244°
2026-05-06 18:05 43.07820 -80.57176 23776 ft 400 kts 244°
2026-05-06 18:05 43.06575 -80.60575 24087 ft 400 kts 244°
2026-05-06 18:06 43.05343 -80.63936 24385 ft 401 kts 244°
2026-05-06 18:06 43.04094 -80.67348 24625 ft 402 kts 244°
2026-05-06 18:06 43.02846 -80.70764 24949 ft 402 kts 244°
2026-05-06 18:06 43.01599 -80.74178 25344 ft 400 kts 244°
2026-05-06 18:07 43.00359 -80.77563 25753 ft 398 kts 244°
2026-05-06 18:07 42.99122 -80.80931 26161 ft 395 kts 244°
2026-05-06 18:07 42.97888 -80.84276 26564 ft 393 kts 244°
2026-05-06 18:07 42.96658 -80.87598 26971 ft 391 kts 245°
2026-05-06 18:08 42.95433 -80.90901 27371 ft 389 kts 245°
2026-05-06 18:08 42.94215 -80.94185 27795 ft 387 kts 244°
2026-05-06 18:08 42.93002 -80.97454 28186 ft 385 kts 245°
2026-05-06 18:08 42.91798 -81.00703 28572 ft 383 kts 245°
2026-05-06 18:09 42.90598 -81.03942 28952 ft 381 kts 245°
2026-05-06 18:09 42.89406 -81.07155 29330 ft 380 kts 245°
2026-05-06 18:09 42.88229 -81.10323 29649 ft 378 kts 245°
2026-05-06 18:09 42.87030 -81.13553 30051 ft 375 kts 245°
2026-05-06 18:10 42.85871 -81.16668 30383 ft 372 kts 245°
2026-05-06 18:10 42.84701 -81.19805 30700 ft 370 kts 245°
2026-05-06 18:10 42.83534 -81.22926 31021 ft 369 kts 245°
2026-05-06 18:10 42.82374 -81.26027 31319 ft 367 kts 246°
2026-05-06 18:11 42.81217 -81.29123 31651 ft 366 kts 246°
2026-05-06 18:11 42.80439 -81.31202 31841 ft 365 kts 246°
2026-05-06 18:11 42.78911 -81.35272 32204 ft 364 kts 246°
2026-05-06 18:11 42.77759 -81.38332 32491 ft 363 kts 246°
2026-05-06 18:12 42.76562 -81.41346 32758 ft 364 kts 241°
2026-05-06 18:12 42.75006 -81.44084 33018 ft 369 kts 233°
2026-05-06 18:12 42.73256 -81.46632 33264 ft 368 kts 233°
2026-05-06 18:12 42.71504 -81.49173 33520 ft 368 kts 233°
2026-05-06 18:13 42.69758 -81.51707 33746 ft 366 kts 234°
2026-05-06 18:13 42.68027 -81.54224 33936 ft 364 kts 234°
2026-05-06 18:13 42.64570 -81.59260 33965 ft 364 kts 234°
2026-05-06 18:14 42.61115 -81.64278 33966 ft 364 kts 234°
2026-05-06 18:14 42.57655 -81.69295 33972 ft 364 kts 234°
2026-05-06 18:15 42.54187 -81.74302 33972 ft 364 kts 234°
2026-05-06 18:15 42.50669 -81.79260 33968 ft 369 kts 229°
2026-05-06 18:16 42.46604 -81.83603 33976 ft 373 kts 227°
2026-05-06 18:16 42.42530 -81.87905 33952 ft 375 kts 227°
2026-05-06 18:17 42.38401 -81.92269 33956 ft 377 kts 227°
2026-05-06 18:17 42.34249 -81.96642 33955 ft 379 kts 227°
2026-05-06 18:18 42.30096 -82.00998 33960 ft 377 kts 228°
2026-05-06 18:18 42.25962 -82.05337 33980 ft 376 kts 228°
2026-05-06 18:19 42.21836 -82.09665 33985 ft 375 kts 228°
2026-05-06 18:19 42.18411 -82.13245 33994 ft 374 kts 228°
2026-05-06 18:20 42.14302 -82.17536 33990 ft 374 kts 228°
2026-05-06 18:20 42.09533 -82.22513 33971 ft 372 kts 229°
2026-05-06 18:21 42.06107 -82.26082 33975 ft 371 kts 229°
2026-05-06 18:21 42.02020 -82.30331 33991 ft 371 kts 229°
2026-05-06 18:22 41.97944 -82.34568 33996 ft 370 kts 229°
2026-05-06 18:22 41.93865 -82.38797 33926 ft 370 kts 229°
2026-05-06 18:23 41.89812 -82.42982 33995 ft 367 kts 229°
2026-05-06 18:23 41.85802 -82.47126 34003 ft 366 kts 229°
2026-05-06 18:24 41.81780 -82.51288 34002 ft 365 kts 229°
2026-05-06 18:24 41.77763 -82.55434 34005 ft 364 kts 229°
2026-05-06 18:25 41.73744 -82.59568 33967 ft 364 kts 229°
2026-05-06 18:25 41.69726 -82.63676 33990 ft 363 kts 229°
2026-05-06 18:26 41.65719 -82.67767 33992 ft 362 kts 229°
2026-05-06 18:26 41.61719 -82.71862 33994 ft 362 kts 229°
2026-05-06 18:27 41.57727 -82.75953 33997 ft 362 kts 229°
2026-05-06 18:27 41.53732 -82.80027 33969 ft 361 kts 230°
2026-05-06 18:28 41.49743 -82.84087 33987 ft 360 kts 230°
2026-05-06 18:28 41.45787 -82.88109 34005 ft 359 kts 230°
2026-05-06 18:29 41.41812 -82.92146 34001 ft 359 kts 230°
2026-05-06 18:29 41.37845 -82.96177 34007 ft 359 kts 230°
2026-05-06 18:30 41.33871 -83.00194 33957 ft 358 kts 230°
2026-05-06 18:30 41.29897 -83.04199 33979 ft 358 kts 230°
2026-05-06 18:31 41.25925 -83.08196 33988 ft 358 kts 230°
2026-05-06 18:31 41.21953 -83.12202 34001 ft 358 kts 230°
2026-05-06 18:32 41.17983 -83.16201 34028 ft 358 kts 230°
2026-05-06 18:32 41.14011 -83.20184 33976 ft 358 kts 230°
2026-05-06 18:33 41.10072 -83.24130 33994 ft 357 kts 230°
2026-05-06 18:33 41.06113 -83.28096 34004 ft 357 kts 230°
2026-05-06 18:34 41.02151 -83.32055 34007 ft 357 kts 230°
2026-05-06 18:34 40.98189 -83.36009 34012 ft 357 kts 230°
2026-05-06 18:35 40.94221 -83.39954 33952 ft 357 kts 230°
2026-05-06 18:35 40.90258 -83.43895 33968 ft 357 kts 230°
2026-05-06 18:36 40.86287 -83.47840 33985 ft 357 kts 230°
2026-05-06 18:36 40.82317 -83.51778 33993 ft 357 kts 230°
2026-05-06 18:37 40.78344 -83.55713 34015 ft 357 kts 230°
2026-05-06 18:37 40.74369 -83.59645 34021 ft 357 kts 230°
2026-05-06 18:38 40.70391 -83.63568 33998 ft 356 kts 229°
2026-05-06 18:38 40.66424 -83.67477 34016 ft 356 kts 230°
2026-05-06 18:39 40.62451 -83.71392 34017 ft 356 kts 230°
2026-05-06 18:40 40.56518 -83.77220 34036 ft 356 kts 229°
2026-05-06 18:40 40.52541 -83.81120 34034 ft 356 kts 229°
2026-05-06 18:41 40.48561 -83.85008 34037 ft 356 kts 229°
2026-05-06 18:41 40.44591 -83.88897 34029 ft 356 kts 230°
2026-05-06 18:42 40.40614 -83.92782 34042 ft 356 kts 229°
2026-05-06 18:42 40.36635 -83.96653 34036 ft 356 kts 229°
2026-05-06 18:43 40.32661 -84.00515 34036 ft 355 kts 229°
2026-05-06 18:43 40.28754 -84.04441 33976 ft 347 kts 235°
2026-05-06 18:44 40.25603 -84.09021 33993 ft 340 kts 238°
2026-05-06 18:44 40.22477 -84.13673 34004 ft 340 kts 238°
2026-05-06 18:45 40.19342 -84.18319 34016 ft 341 kts 238°
2026-05-06 18:45 40.16205 -84.22955 34017 ft 341 kts 238°
2026-05-06 18:46 40.13065 -84.27596 34019 ft 340 kts 238°
2026-05-06 18:46 40.09925 -84.32229 33999 ft 340 kts 238°
2026-05-06 18:47 40.06793 -84.36852 34010 ft 340 kts 238°
2026-05-06 18:47 40.03661 -84.41476 34011 ft 340 kts 238°
2026-05-06 18:48 40.00528 -84.46086 34012 ft 340 kts 238°
2026-05-06 18:48 39.97391 -84.50690 34019 ft 340 kts 238°
2026-05-06 18:49 39.94250 -84.55288 34031 ft 340 kts 238°
2026-05-06 18:49 39.91131 -84.59854 34036 ft 339 kts 238°
2026-05-06 18:50 39.87990 -84.64449 33985 ft 340 kts 238°
2026-05-06 18:50 39.84842 -84.69048 34044 ft 340 kts 238°
2026-05-06 18:51 39.81693 -84.73627 34050 ft 339 kts 238°
2026-05-06 18:51 39.78546 -84.78202 34051 ft 339 kts 238°
2026-05-06 18:52 39.75405 -84.82768 34051 ft 339 kts 238°
2026-05-06 18:52 39.72266 -84.87328 34051 ft 339 kts 238°
2026-05-06 18:53 39.69123 -84.91881 33983 ft 338 kts 238°
2026-05-06 18:53 39.65969 -84.96444 34007 ft 340 kts 238°
2026-05-06 18:54 39.62825 -85.00978 34014 ft 340 kts 238°
2026-05-06 18:54 39.59662 -85.05548 34050 ft 340 kts 238°
2026-05-06 18:55 39.56503 -85.10104 34045 ft 339 kts 238°
2026-05-06 18:55 39.53339 -85.14647 34045 ft 339 kts 238°
2026-05-06 18:56 39.50181 -85.19169 34041 ft 338 kts 238°
2026-05-06 18:56 39.47037 -85.23689 33993 ft 338 kts 238°
2026-05-06 18:57 39.43890 -85.28202 34005 ft 338 kts 238°
2026-05-06 18:57 39.40729 -85.32711 34005 ft 338 kts 237°
2026-05-06 18:58 39.37567 -85.37218 34006 ft 338 kts 237°
2026-05-06 18:58 39.34403 -85.41725 34010 ft 339 kts 237°
2026-05-06 18:59 39.31241 -85.46230 34035 ft 338 kts 237°
2026-05-06 18:59 39.28101 -85.50696 34036 ft 338 kts 237°
2026-05-06 19:00 39.24948 -85.55182 34005 ft 337 kts 237°
2026-05-06 19:00 39.21789 -85.59658 34017 ft 337 kts 237°
2026-05-06 19:01 39.18626 -85.64130 34027 ft 337 kts 237°
2026-05-06 19:01 39.15466 -85.68599 34030 ft 337 kts 237°
2026-05-06 19:02 39.12298 -85.73065 34037 ft 338 kts 237°
2026-05-06 19:02 39.09125 -85.77533 34040 ft 338 kts 237°
2026-05-06 19:03 39.05950 -85.81997 34044 ft 338 kts 237°
2026-05-06 19:03 39.02780 -85.86450 34002 ft 338 kts 237°
2026-05-06 19:04 38.99608 -85.90909 34032 ft 338 kts 237°
2026-05-06 19:04 38.96454 -85.95328 34025 ft 337 kts 237°
2026-05-06 19:05 38.93280 -85.99767 34039 ft 337 kts 237°
2026-05-06 19:05 38.90106 -86.04202 34027 ft 337 kts 237°
2026-05-06 19:06 38.86933 -86.08629 34028 ft 337 kts 237°
2026-05-06 19:06 38.83764 -86.13051 34026 ft 337 kts 237°
2026-05-06 19:07 38.80592 -86.17464 33997 ft 336 kts 237°
2026-05-06 19:07 38.77421 -86.21870 34025 ft 336 kts 237°
2026-05-06 19:08 38.74253 -86.26267 34041 ft 336 kts 237°
2026-05-06 19:08 38.71080 -86.30656 34048 ft 336 kts 236°
2026-05-06 19:09 38.67912 -86.35035 34050 ft 335 kts 237°
2026-05-06 19:09 38.64742 -86.39411 34051 ft 335 kts 236°
2026-05-06 19:10 38.61572 -86.43777 34054 ft 335 kts 236°
2026-05-06 19:10 38.58401 -86.48141 34016 ft 336 kts 236°
2026-05-06 19:11 38.55238 -86.52497 34026 ft 337 kts 236°
2026-05-06 19:11 38.52051 -86.56880 34062 ft 337 kts 236°
2026-05-06 19:12 38.48861 -86.61259 34074 ft 336 kts 236°
2026-05-06 19:12 38.46218 -86.64891 34078 ft 336 kts 236°
2026-05-06 19:13 38.43029 -86.69247 34076 ft 336 kts 236°
2026-05-06 19:13 38.39846 -86.73597 34073 ft 335 kts 236°
2026-05-06 19:14 38.36663 -86.77944 34069 ft 335 kts 236°
2026-05-06 19:14 38.33474 -86.82286 34070 ft 335 kts 236°
2026-05-06 19:15 38.30283 -86.86625 34066 ft 336 kts 236°
2026-05-06 19:15 38.27093 -86.90962 34071 ft 336 kts 236°
2026-05-06 19:16 38.23902 -86.95294 34091 ft 336 kts 236°
2026-05-06 19:16 38.20710 -86.99616 34084 ft 335 kts 235°
2026-05-06 19:17 38.17520 -87.03926 34084 ft 334 kts 235°
2026-05-06 19:17 38.14338 -87.08234 34017 ft 334 kts 235°
2026-05-06 19:18 38.11169 -87.12519 34028 ft 336 kts 235°
2026-05-06 19:18 38.07961 -87.16843 34045 ft 337 kts 235°
2026-05-06 19:19 38.04744 -87.21175 34053 ft 337 kts 235°
2026-05-06 19:19 38.01523 -87.25506 34063 ft 338 kts 235°
2026-05-06 19:20 37.98297 -87.29838 34068 ft 338 kts 234°
2026-05-06 19:20 37.95066 -87.34154 34101 ft 337 kts 234°
2026-05-06 19:21 37.91845 -87.38463 34023 ft 336 kts 234°
2026-05-06 19:21 37.88623 -87.42768 34032 ft 338 kts 234°
2026-05-06 19:22 37.85404 -87.47060 34039 ft 339 kts 234°
2026-05-06 19:22 37.82159 -87.51389 34044 ft 339 kts 234°
2026-05-06 19:23 37.78906 -87.55722 34050 ft 340 kts 234°
2026-05-06 19:23 37.75646 -87.60057 34056 ft 340 kts 234°
2026-05-06 19:24 37.72386 -87.64384 34061 ft 340 kts 234°
2026-05-06 19:24 37.69121 -87.68707 34027 ft 340 kts 234°
2026-05-06 19:25 37.65853 -87.73037 34042 ft 342 kts 234°
2026-05-06 19:25 37.62569 -87.77385 34054 ft 342 kts 234°
2026-05-06 19:26 37.59277 -87.81725 34064 ft 342 kts 234°
2026-05-06 19:26 37.55987 -87.86074 34067 ft 343 kts 234°
2026-05-06 19:27 37.52711 -87.90386 34067 ft 343 kts 234°
2026-05-06 19:27 37.49408 -87.94719 34070 ft 343 kts 234°
2026-05-06 19:28 37.46019 -87.98964 34070 ft 350 kts 228°
2026-05-06 19:28 37.42161 -88.02734 34022 ft 352 kts 228°
2026-05-06 19:29 37.38289 -88.06516 34032 ft 351 kts 230°
2026-05-06 19:29 37.34676 -88.10593 34064 ft 348 kts 232°
2026-05-06 19:30 37.31153 -88.14764 34052 ft 347 kts 232°
2026-05-06 19:30 37.27632 -88.18926 34059 ft 347 kts 232°
2026-05-06 19:31 37.24101 -88.23060 34059 ft 347 kts 231°
2026-05-06 19:31 37.18788 -88.29242 34014 ft 348 kts 232°
2026-05-06 19:32 37.15240 -88.33374 34030 ft 348 kts 232°
2026-05-06 19:32 37.11706 -88.37484 34030 ft 349 kts 232°
2026-05-06 19:33 37.08138 -88.41620 34036 ft 350 kts 232°
2026-05-06 19:33 37.04565 -88.45755 34045 ft 350 kts 232°
2026-05-06 19:34 37.00997 -88.49885 34073 ft 349 kts 231°
2026-05-06 19:34 36.97431 -88.54002 34013 ft 349 kts 232°
2026-05-06 19:35 36.93861 -88.58114 34024 ft 349 kts 232°
2026-05-06 19:35 36.90287 -88.62241 34047 ft 350 kts 232°
2026-05-06 19:36 36.86706 -88.66362 34046 ft 350 kts 232°
2026-05-06 19:36 36.83124 -88.70478 34050 ft 350 kts 232°
2026-05-06 19:37 36.79568 -88.74561 34055 ft 350 kts 232°
2026-05-06 19:37 36.75991 -88.78666 34055 ft 349 kts 232°
2026-05-06 19:38 36.72414 -88.82760 34015 ft 349 kts 231°
2026-05-06 19:38 36.68825 -88.86862 34024 ft 350 kts 231°
2026-05-06 19:39 36.65230 -88.90960 34031 ft 351 kts 231°
2026-05-06 19:39 36.61624 -88.95066 34043 ft 351 kts 231°
2026-05-06 19:40 36.58024 -88.99167 34047 ft 351 kts 231°
2026-05-06 19:40 36.54423 -89.03269 34055 ft 351 kts 231°
2026-05-06 19:41 36.50820 -89.07362 34053 ft 351 kts 231°
2026-05-06 19:41 36.47211 -89.11455 34018 ft 352 kts 231°
2026-05-06 19:42 36.43612 -89.15523 34024 ft 353 kts 231°
2026-05-06 19:42 36.39978 -89.19630 34043 ft 353 kts 231°
2026-05-06 19:43 36.36345 -89.23745 34059 ft 354 kts 231°
2026-05-06 19:43 36.32708 -89.27856 34067 ft 353 kts 231°
2026-05-06 19:44 36.29071 -89.31950 34072 ft 353 kts 230°
2026-05-06 19:44 36.25445 -89.36034 34075 ft 352 kts 230°
2026-05-06 19:45 36.21806 -89.40123 34029 ft 354 kts 230°
2026-05-06 19:45 36.18153 -89.44228 34034 ft 356 kts 230°
2026-05-06 19:46 36.14477 -89.48346 34042 ft 357 kts 230°
2026-05-06 19:46 36.10790 -89.52473 34053 ft 358 kts 230°
2026-05-06 19:47 36.07097 -89.56603 34064 ft 358 kts 230°
2026-05-06 19:47 36.03415 -89.60704 34070 ft 358 kts 230°
2026-05-06 19:48 35.99717 -89.64827 34089 ft 359 kts 230°
2026-05-06 19:48 35.96009 -89.68960 34095 ft 358 kts 230°
2026-05-06 19:49 35.92306 -89.73082 34098 ft 358 kts 230°
2026-05-06 19:49 35.88603 -89.77196 34099 ft 358 kts 230°
2026-05-06 19:50 35.84895 -89.81298 34079 ft 358 kts 230°
2026-05-06 19:50 35.81184 -89.85407 34078 ft 358 kts 230°
2026-05-06 19:51 35.77499 -89.89474 34078 ft 358 kts 230°
2026-05-06 19:51 35.73793 -89.93570 34017 ft 358 kts 230°
2026-05-06 19:52 35.70071 -89.97675 34025 ft 360 kts 230°
2026-05-06 19:52 35.66332 -90.01794 34041 ft 361 kts 230°
2026-05-06 19:53 35.62592 -90.05919 34040 ft 361 kts 230°
2026-05-06 19:53 35.58845 -90.10037 34044 ft 361 kts 230°
2026-05-06 19:54 35.55096 -90.14149 34044 ft 361 kts 230°
2026-05-06 19:54 35.51344 -90.18254 34042 ft 361 kts 230°
2026-05-06 19:55 35.47588 -90.22357 34004 ft 362 kts 229°
2026-05-06 19:55 35.43830 -90.26467 34002 ft 362 kts 229°
2026-05-06 19:56 35.40091 -90.30563 34018 ft 363 kts 230°
2026-05-06 19:56 35.36315 -90.34685 34023 ft 364 kts 229°
2026-05-06 19:57 35.32531 -90.38794 34048 ft 364 kts 229°
2026-05-06 19:57 35.28745 -90.42906 34040 ft 363 kts 229°
2026-05-06 19:58 35.24961 -90.47005 34064 ft 363 kts 229°
2026-05-06 19:58 35.21181 -90.51104 34019 ft 363 kts 229°
2026-05-06 19:59 35.17397 -90.55215 34022 ft 364 kts 229°
2026-05-06 19:59 35.13624 -90.59303 34038 ft 365 kts 229°
2026-05-06 20:00 35.09829 -90.63406 34046 ft 365 kts 229°
2026-05-06 20:00 35.06029 -90.67504 34052 ft 364 kts 229°
2026-05-06 20:01 35.02226 -90.71604 34055 ft 365 kts 229°
2026-05-06 20:01 34.98423 -90.75700 34007 ft 365 kts 229°
2026-05-06 20:02 34.94586 -90.79824 34073 ft 369 kts 229°
2026-05-06 20:02 34.90738 -90.83957 34064 ft 369 kts 229°
2026-05-06 20:03 34.86891 -90.88083 34059 ft 368 kts 229°
2026-05-06 20:03 34.83041 -90.92196 34057 ft 368 kts 229°
2026-05-06 20:04 34.79213 -90.96280 34050 ft 368 kts 229°
2026-05-06 20:04 34.75369 -91.00392 34048 ft 368 kts 229°
2026-05-06 20:05 34.71522 -91.04503 33991 ft 368 kts 228°
2026-05-06 20:05 34.67664 -91.08611 34017 ft 370 kts 228°
2026-05-06 20:06 34.63779 -91.12736 34024 ft 372 kts 228°
2026-05-06 20:06 34.60541 -91.16177 34046 ft 372 kts 228°
2026-05-06 20:07 34.56639 -91.20319 34055 ft 373 kts 228°
2026-05-06 20:07 34.52726 -91.24464 34066 ft 373 kts 228°
2026-05-06 20:08 34.48813 -91.28606 34069 ft 373 kts 228°
2026-05-06 20:08 34.44915 -91.32726 34006 ft 374 kts 227°
2026-05-06 20:09 34.40986 -91.36874 34014 ft 376 kts 227°
2026-05-06 20:09 34.37042 -91.41038 34037 ft 377 kts 227°
2026-05-06 20:10 34.33085 -91.45206 34040 ft 377 kts 227°
2026-05-06 20:10 34.29125 -91.49362 34044 ft 377 kts 227°
2026-05-06 20:11 34.25165 -91.53524 34062 ft 377 kts 227°
2026-05-06 20:11 34.21192 -91.57695 34043 ft 379 kts 227°
2026-05-06 20:12 34.17201 -91.61881 34031 ft 381 kts 226°
2026-05-06 20:12 34.13191 -91.66079 34045 ft 382 kts 226°
2026-05-06 20:13 34.09171 -91.70271 34051 ft 382 kts 226°
2026-05-06 20:13 34.05147 -91.74466 34057 ft 382 kts 226°
2026-05-06 20:14 34.01129 -91.78655 34060 ft 382 kts 226°
2026-05-06 20:14 33.97113 -91.82842 34055 ft 382 kts 226°
2026-05-06 20:15 33.93092 -91.87019 34013 ft 382 kts 226°
2026-05-06 20:15 33.89075 -91.91182 34061 ft 381 kts 226°
2026-05-06 20:16 33.85081 -91.95319 34049 ft 381 kts 226°
2026-05-06 20:16 33.81063 -91.99479 34056 ft 381 kts 226°
2026-05-06 20:17 33.77038 -92.03640 34052 ft 381 kts 226°
2026-05-06 20:17 33.73019 -92.07801 34050 ft 381 kts 226°
2026-05-06 20:18 33.69002 -92.11957 34051 ft 381 kts 226°
2026-05-06 20:18 33.64977 -92.16100 34012 ft 381 kts 226°
2026-05-06 20:19 33.60953 -92.20234 34033 ft 380 kts 226°
2026-05-06 20:19 33.56937 -92.24356 34041 ft 380 kts 226°
2026-05-06 20:20 33.52919 -92.28476 34051 ft 380 kts 226°
2026-05-06 20:20 33.48902 -92.32586 34049 ft 380 kts 226°
2026-05-06 20:21 33.44884 -92.36693 34041 ft 380 kts 226°
2026-05-06 20:21 33.40729 -92.40640 34038 ft 387 kts 217°
2026-05-06 20:22 33.38246 -92.41999 34039 ft 400 kts 207°
2026-05-06 20:22 33.35525 -92.42733 34037 ft 412 kts 199°
2026-05-06 20:22 33.29853 -92.43758 34030 ft 413 kts 199°
2026-05-06 20:23 33.24173 -92.44781 34029 ft 413 kts 199°
2026-05-06 20:23 33.18492 -92.45820 34027 ft 413 kts 199°
2026-05-06 20:24 33.12814 -92.46865 33970 ft 413 kts 200°
2026-05-06 20:24 33.07131 -92.47905 33989 ft 413 kts 200°
2026-05-06 20:25 33.01451 -92.48942 33995 ft 413 kts 200°
2026-05-06 20:25 32.95769 -92.49982 34001 ft 413 kts 200°
2026-05-06 20:26 32.90087 -92.51014 33998 ft 413 kts 200°
2026-05-06 20:26 32.84400 -92.52041 33951 ft 413 kts 200°
2026-05-06 20:27 32.78721 -92.53075 33945 ft 413 kts 200°
2026-05-06 20:27 32.73035 -92.54106 33943 ft 413 kts 199°
2026-05-06 20:28 32.67382 -92.55121 33937 ft 414 kts 199°
2026-05-06 20:28 32.61691 -92.56150 33936 ft 414 kts 199°
2026-05-06 20:29 32.55991 -92.57182 33926 ft 416 kts 199°
2026-05-06 20:29 32.50253 -92.58223 33936 ft 418 kts 199°
2026-05-06 20:30 32.41627 -92.59769 33941 ft 418 kts 199°
2026-05-06 20:31 32.35881 -92.60798 33944 ft 418 kts 199°
2026-05-06 20:31 32.30141 -92.61833 33914 ft 418 kts 199°
2026-05-06 20:32 32.24423 -92.62867 33907 ft 419 kts 199°
2026-05-06 20:32 32.18642 -92.63907 33914 ft 421 kts 198°
2026-05-06 20:33 32.12845 -92.64941 33914 ft 422 kts 198°
2026-05-06 20:33 32.07041 -92.65981 33918 ft 422 kts 198°
2026-05-06 20:34 32.01237 -92.67081 33909 ft 421 kts 202°
2026-05-06 20:34 31.95977 -92.69710 33922 ft 404 kts 220°
2026-05-06 20:35 31.91789 -92.73962 33924 ft 396 kts 229°
2026-05-06 20:35 31.87810 -92.78468 33922 ft 397 kts 229°
2026-05-06 20:36 31.83846 -92.82945 33921 ft 398 kts 229°
2026-05-06 20:36 31.79851 -92.87445 33920 ft 398 kts 229°
2026-05-06 20:37 31.75850 -92.91941 33897 ft 398 kts 229°
2026-05-06 20:37 31.71847 -92.96440 33892 ft 398 kts 229°
2026-05-06 20:38 31.67839 -93.00938 33890 ft 399 kts 229°
2026-05-06 20:38 31.63828 -93.05442 33916 ft 400 kts 229°
2026-05-06 20:39 31.59809 -93.09943 33920 ft 399 kts 229°
2026-05-06 20:39 31.55801 -93.14436 33919 ft 399 kts 229°
2026-05-06 20:40 31.51789 -93.18930 33915 ft 399 kts 229°
2026-05-06 20:40 31.47804 -93.23388 33895 ft 399 kts 229°
2026-05-06 20:41 31.43778 -93.27879 33896 ft 400 kts 229°
2026-05-06 20:41 31.39732 -93.32378 33903 ft 401 kts 229°
2026-05-06 20:42 31.35681 -93.36874 33906 ft 401 kts 229°
2026-05-06 20:42 31.31626 -93.41371 33911 ft 402 kts 229°
2026-05-06 20:43 31.27567 -93.45869 33916 ft 402 kts 229°
2026-05-06 20:43 31.23498 -93.50362 33922 ft 402 kts 229°
2026-05-06 20:44 31.19437 -93.54858 33905 ft 402 kts 229°
2026-05-06 20:44 31.15369 -93.59355 33892 ft 403 kts 229°
2026-05-06 20:45 31.11320 -93.63837 33896 ft 404 kts 229°
2026-05-06 20:45 31.07236 -93.68347 33899 ft 405 kts 229°
2026-05-06 20:46 31.03135 -93.72859 33916 ft 405 kts 229°
2026-05-06 20:46 30.99027 -93.77375 33929 ft 407 kts 229°
2026-05-06 20:47 30.94897 -93.81906 33411 ft 410 kts 229°
2026-05-06 20:47 30.92821 -93.84182 32472 ft 406 kts 229°
2026-05-06 20:47 30.90773 -93.86421 31191 ft 401 kts 228°
2026-05-06 20:47 30.88776 -93.88602 30647 ft 391 kts 228°
2026-05-06 20:48 30.86787 -93.90779 29801 ft 395 kts 228°
2026-05-06 20:48 30.84775 -93.92990 28725 ft 401 kts 227°
2026-05-06 20:48 30.82741 -93.95231 27766 ft 405 kts 227°
2026-05-06 20:48 30.80679 -93.97501 26699 ft 411 kts 227°
2026-05-06 20:49 30.78580 -93.99805 25649 ft 418 kts 227°
2026-05-06 20:49 30.76453 -94.02135 24619 ft 423 kts 226°
2026-05-06 20:49 30.74302 -94.04487 23699 ft 426 kts 226°
2026-05-06 20:49 30.72170 -94.06814 23446 ft 412 kts 226°
2026-05-06 20:50 30.70125 -94.09040 23315 ft 394 kts 226°
2026-05-06 20:50 30.68166 -94.11173 23183 ft 378 kts 226°
2026-05-06 20:50 30.66288 -94.13218 23051 ft 363 kts 226°
2026-05-06 20:50 30.64506 -94.15160 22832 ft 350 kts 226°
2026-05-06 20:51 30.62748 -94.17075 22464 ft 343 kts 226°
2026-05-06 20:51 30.60990 -94.18941 22130 ft 342 kts 225°
2026-05-06 20:51 30.59227 -94.20774 21583 ft 340 kts 225°
2026-05-06 20:51 30.57462 -94.22587 21026 ft 338 kts 224°
2026-05-06 20:52 30.55704 -94.24386 20482 ft 337 kts 224°
2026-05-06 20:52 30.53951 -94.26184 19925 ft 336 kts 224°
2026-05-06 20:52 30.52210 -94.27976 19477 ft 332 kts 224°
2026-05-06 20:52 30.50482 -94.29760 18964 ft 331 kts 224°
2026-05-06 20:53 30.48777 -94.31518 18439 ft 327 kts 224°
2026-05-06 20:53 30.47075 -94.33273 17933 ft 326 kts 224°
2026-05-06 20:53 30.45385 -94.35015 17507 ft 322 kts 224°
2026-05-06 20:53 30.43745 -94.36702 17363 ft 309 kts 224°
2026-05-06 20:54 30.42170 -94.38323 17248 ft 297 kts 224°
2026-05-06 20:54 30.40652 -94.39883 17086 ft 287 kts 224°
2026-05-06 20:54 30.39165 -94.41393 16804 ft 282 kts 223°
2026-05-06 20:54 30.37668 -94.42845 16455 ft 280 kts 222°
2026-05-06 20:55 30.36168 -94.44270 16084 ft 278 kts 221°
2026-05-06 20:55 30.34670 -94.45683 15729 ft 277 kts 221°
2026-05-06 20:55 30.33178 -94.47093 15371 ft 276 kts 221°
2026-05-06 20:55 30.31694 -94.48496 15002 ft 275 kts 221°
2026-05-06 20:56 30.30219 -94.49894 14656 ft 273 kts 220°
2026-05-06 20:56 30.28771 -94.51271 14308 ft 273 kts 220°
2026-05-06 20:56 30.27307 -94.52665 13955 ft 272 kts 220°
2026-05-06 20:56 30.25848 -94.54054 13589 ft 271 kts 220°
2026-05-06 20:57 30.24394 -94.55436 13240 ft 269 kts 220°
2026-05-06 20:57 30.22978 -94.56779 13128 ft 258 kts 220°
2026-05-06 20:57 30.21614 -94.58074 12952 ft 250 kts 220°
2026-05-06 20:57 30.20272 -94.59342 12861 ft 251 kts 220°
2026-05-06 20:58 30.18895 -94.60597 12412 ft 254 kts 219°
2026-05-06 20:58 30.17490 -94.61848 12004 ft 255 kts 219°
2026-05-06 20:58 30.16083 -94.63090 11582 ft 256 kts 218°
2026-05-06 20:58 30.14676 -94.64331 11285 ft 253 kts 219°
2026-05-06 20:59 30.13750 -94.65150 11032 ft 253 kts 219°
2026-05-06 20:59 30.12352 -94.66390 10668 ft 253 kts 219°
2026-05-06 20:59 30.10972 -94.67614 10470 ft 246 kts 219°
2026-05-06 20:59 30.09629 -94.68804 10341 ft 239 kts 219°
2026-05-06 21:00 30.08322 -94.69964 9973 ft 237 kts 219°
2026-05-06 21:00 30.07018 -94.71123 9585 ft 235 kts 219°
2026-05-06 21:00 30.05731 -94.72264 9256 ft 231 kts 219°
2026-05-06 21:00 30.04466 -94.73389 8933 ft 228 kts 219°
2026-05-06 21:01 30.03228 -94.74514 8615 ft 226 kts 220°
2026-05-06 21:01 30.02018 -94.75654 8294 ft 223 kts 225°
2026-05-06 21:01 30.01145 -94.77065 8012 ft 211 kts 245°
2026-05-06 21:01 30.00792 -94.78647 7775 ft 199 kts 263°
2026-05-06 21:02 30.00733 -94.80194 7566 ft 187 kts 264°
2026-05-06 21:02 30.00669 -94.81653 7370 ft 178 kts 264°
2026-05-06 21:02 30.00637 -94.83039 7210 ft 170 kts 266°
2026-05-06 21:02 30.00637 -94.84473 7017 ft 183 kts 267°
2026-05-06 21:03 30.00642 -94.85953 6815 ft 185 kts 267°
2026-05-06 21:03 30.00648 -94.87435 6615 ft 185 kts 266°
2026-05-06 21:03 30.00655 -94.88916 6419 ft 185 kts 268°
2026-05-06 21:03 30.00663 -94.90404 6222 ft 185 kts 268°
2026-05-06 21:04 30.00670 -94.91864 6015 ft 184 kts 268°
2026-05-06 21:04 30.00676 -94.93346 5823 ft 185 kts 267°
2026-05-06 21:04 30.00681 -94.94826 5638 ft 184 kts 265°
2026-05-06 21:04 30.00684 -94.96324 5450 ft 191 kts 267°
2026-05-06 21:05 30.00687 -94.97857 5459 ft 191 kts 269°
2026-05-06 21:05 30.00690 -94.99398 5308 ft 194 kts 269°
2026-05-06 21:05 30.00694 -95.00966 4892 ft 194 kts 267°
2026-05-06 21:05 30.00698 -95.02481 4626 ft 185 kts 266°
2026-05-06 21:06 30.00700 -95.03960 4411 ft 184 kts 266°
2026-05-06 21:06 30.00702 -95.05428 4209 ft 183 kts 267°
2026-05-06 21:06 30.00705 -95.06913 3995 ft 186 kts 268°
2026-05-06 21:06 30.00707 -95.08390 3799 ft 182 kts 265°
2026-05-06 21:07 30.00709 -95.09829 3617 ft 176 kts 264°
2026-05-06 21:07 30.00711 -95.11236 3432 ft 174 kts 265°
2026-05-06 21:07 30.00712 -95.12631 3337 ft 177 kts 264°
2026-05-06 21:07 30.00712 -95.14081 3177 ft 182 kts 265°
2026-05-06 21:08 30.00714 -95.15545 2969 ft 182 kts 266°
2026-05-06 21:08 30.00716 -95.16992 2735 ft 179 kts 267°
2026-05-06 21:08 30.00717 -95.18401 2514 ft 169 kts 267°
2026-05-06 21:08 30.00719 -95.19696 2312 ft 156 kts 265°
2026-05-06 21:09 30.00719 -95.20922 2116 ft 151 kts 265°
2026-05-06 21:09 30.00719 -95.22111 1921 ft 150 kts 267°
2026-05-06 21:09 30.00720 -95.23329 1718 ft 153 kts 267°
2026-05-06 21:09 30.00720 -95.24519 1524 ft 145 kts 267°
2026-05-06 21:10 30.00720 -95.25678 1337 ft 144 kts 267°
2026-05-06 21:10 30.00720 -95.26822 1154 ft 142 kts 267°
2026-05-06 21:10 30.00718 -95.27973 953 ft 143 kts 264°
2026-05-06 21:10 30.00714 -95.29126 798 ft 144 kts 265°
2026-05-06 21:11 30.00716 -95.30307 542 ft 150 kts 268°
2026-05-06 21:11 30.00724 -95.31525 376 ft 152 kts 265°
2026-05-06 21:11 30.00718 -95.32743 209 ft 151 kts 265°
2026-05-06 21:11 30.00714 -95.33933 106 ft 137 kts 268°
2026-05-06 21:12 30.00714 -95.34764 106 ft 76 kts 270°
2026-05-06 21:12 30.00716 -95.35127 107 ft 24 kts 270°
2026-05-06 21:12 30.00712 -95.35236 106 ft 7 kts 264°
2026-05-06 21:12 30.00699 -95.35318 105 ft 14 kts 256°
2026-05-06 21:13 30.00667 -95.35414 105 ft 11 kts 244°
2026-05-06 21:13 30.00641 -95.35477 105 ft 6 kts 244°
2026-05-06 21:13 30.00615 -95.35524 107 ft 10 kts 238°
2026-05-06 21:13 30.00559 -95.35622 107 ft 18 kts 223°
2026-05-06 21:14 30.00446 -95.35654 107 ft 16 kts 179°
2026-05-06 21:14 30.00348 -95.35654 107 ft 13 kts 180°
2026-05-06 21:14 30.00257 -95.35652 107 ft 15 kts 171°
2026-05-06 21:14 30.00166 -95.35580 107 ft 17 kts 137°
2026-05-06 21:15 30.00076 -95.35515 106 ft 14 kts 156°
2026-05-06 21:15 29.99992 -95.35489 107 ft 12 kts 174°
2026-05-06 21:15 29.99876 -95.35486 107 ft 21 kts 179°
2026-05-06 21:15 29.99736 -95.35485 107 ft 19 kts 180°
2026-05-06 21:16 29.99616 -95.35485 107 ft 16 kts 179°
2026-05-06 21:16 29.99517 -95.35485 107 ft 13 kts 180°
2026-05-06 21:16 29.99440 -95.35485 107 ft 10 kts 180°
2026-05-06 21:16 29.99375 -95.35485 107 ft 12 kts 180°
2026-05-06 21:17 29.99276 -95.35485 107 ft 14 kts 179°
2026-05-06 21:17 29.99190 -95.35484 107 ft 11 kts 180°
2026-05-06 21:17 29.99123 -95.35480 107 ft 10 kts 166°
2026-05-06 21:17 29.99091 -95.35391 107 ft 17 kts 90°
2026-05-06 21:18 29.99090 -95.35265 107 ft 14 kts 90°
2026-05-06 21:18 29.99090 -95.35165 107 ft 11 kts 89°
2026-05-06 21:18 29.99091 -95.35067 107 ft 13 kts 90°
2026-05-06 21:18 29.99088 -95.34961 106 ft 14 kts 92°
2026-05-06 21:19 29.99085 -95.34862 107 ft 11 kts 92°
2026-05-06 21:19 29.99084 -95.34766 107 ft 16 kts 89°
2026-05-06 21:19 29.99085 -95.34601 107 ft 25 kts 90°
2026-05-06 21:19 29.99085 -95.34405 107 ft 23 kts 89°
2026-05-06 21:20 29.99085 -95.34239 107 ft 19 kts 89°
2026-05-06 21:20 29.99087 -95.34100 107 ft 13 kts 89°
2026-05-06 21:20 29.99044 -95.34041 107 ft 9 kts 172°
2026-05-06 21:20 29.98990 -95.34040 107 ft 6 kts 184°
2026-05-06 21:21 29.98966 -95.34056 107 ft 2 kts 223°
2026-05-06 21:21 29.98956 -95.34074 107 ft 3 kts 239°
2026-05-06 21:21 29.98948 -95.34089 107 ft 3 kts 238°
2026-05-06 21:21 29.98940 -95.34105 107 ft 0 kts 239°